STARLINK-37051, 68080

Orbit data source: Space-Track

STARLINK-37051, 68080 is a payload satellite owned by SpaceX/Seattle (US) in LEO that was launched on Wed, 04 Mar 2026 UTC via an FALCON 9 launch vehicle from the Air Force Eastern Test Range (AFETR). Payload-class satellites include a variety of spacecraft equipped with specific instruments for various scientific and technological missions. These include communications satellites like Starlink; space stations such as the ISS; scientific satellites like the Hubble; Earth observation satellites from companies like Planet Labs, Umbra, and HawkEye 360; GPS; miniature CubeSats for education and research; and military/defense satellites.

Loading next visibility...
Identifier
68080, 2026-042M
Orbit
LEO
Country
Flag of USUS
Related business
Manufacturer
SpaceX/Seattle
Mission
Operational spacecraft
Bus & Motor
STARLINK V2MO, Unknown motor
Mass
575 kg wet, ~530 kg dry
Launch date (UTC)
2026-03-04 (1 month ago)
Launch vehicle
FALCON 9
Launch site
Air Force Eastern Test Range (AFETR)
Object type
Payload
Rocket body
Debris
Shape & HBR
Unknown shape, 17.7 m
Radar Cross Section
RCS unknown

Expand to show TLE details & history
Last TLE update: 12 hours ago

TLE from 12 hours ago
0 STARLINK-37051
1 68080U 26042M   26102.07006798  .00190465  00000-0  12178-2 0  9990
2 68080  53.1574  28.1494 0001123  97.2282 262.8866 15.75258849  7351
Epoch: 2026-04-12T01:40Z
TLE epoch observation values (Epoch: 2026-04-12T01:40:53.873Z)
Latitude
-0.00002°
Longitude
162.64461°
Altitude
344.905 km
Speed
7.703 km/s
True Right ascension
01h 52m 35s
True Declination
0° 00' 00"
Sunlit
Object was in daylight at epoch
Visualization orbit readout
Latitude
Unknown
Longitude
Unknown
Altitude
Unknown
Speed
Unknown
Apparent Right ascension
Unknown
Apparent Declination
Unknown
Sunlit
N/A
Visualization observer readout
Local Sidereal Time
19:55:58
Azimuth
Unknown
Elevation
Unknown
Doppler factor
Unknown
Orbital elements
Apogee altitude
344.911 km
Perigee altitude
343.401 km
Semi-major axis
6,722.293 km
Eccentricity
0.00011
Inclination
53.1574°
RAAN
28.1494°
Arg. of periapsis
97.2282°
True anomaly
262.87383°
Mean anomaly
262.8866°
Eccentric anomaly
262.88022°
Mean motion
3.93792 °/min
Orbital period
91.42 mins
BSTAR
0.0012178
Loading maneuver chart data...
Computing Atmospheric mass density...
Loading historical data...
Loading historical data...
Loading historical data...
Loading historical data...
Loading historical data...
Loading historical data...
Loading historical data...

Documentation

Showing up to 5 results
|